timestamp,wind_dir_avg,wind_spd_avg,wind_spd_max_dir,wind_spd_gust,battery_voltage,lat,long
2022-12-01 00:04:00+00:00,200.0,5.02,197.0,5.58,12.41,47.59359,-54.27349
2022-12-01 00:14:00+00:00,185.0,5.06,190.0,5.66,12.41,47.59359,-54.27349
2022-12-01 00:24:00+00:00,197.0,6.57,198.0,7.36,12.41,47.59359,-54.27349
2022-12-01 00:34:00+00:00,193.0,6.3,196.0,7.27,12.41,47.59359,-54.27349
2022-12-01 00:44:00+00:00,184.0,7.11,185.0,7.94,12.41,47.59359,-54.27349
2022-12-01 00:54:00+00:00,193.0,6.82,198.0,8.1,12.41,47.59359,-54.27349
2022-12-01 01:04:00+00:00,185.0,6.62,192.0,7.71,12.41,47.59359,-54.27349
2022-12-01 01:14:00+00:00,186.0,6.94,189.0,7.98,12.33,47.59359,-54.27349
2022-12-01 01:24:00+00:00,186.0,7.55,192.0,9.28,12.33,47.59359,-54.27349
2022-12-01 01:34:00+00:00,199.0,7.66,209.0,8.77,12.33,47.59359,-54.27349
2022-12-01 01:44:00+00:00,228.0,7.69,238.0,11.23,12.33,47.59359,-54.27349
2022-12-01 01:54:00+00:00,219.0,7.32,235.0,8.47,12.33,47.59359,-54.27349
2022-12-01 02:04:00+00:00,207.0,6.25,207.0,6.94,12.33,47.59359,-54.27349
2022-12-01 02:14:00+00:00,184.0,5.79,204.0,7.01,12.33,47.59359,-54.27349
2022-12-01 02:24:00+00:00,181.0,5.1,174.0,6.46,12.33,47.59359,-54.27349
2022-12-01 02:34:00+00:00,176.0,5.72,168.0,6.75,12.33,47.59359,-54.27349
2022-12-01 02:44:00+00:00,181.0,7.35,171.0,8.42,12.33,47.59359,-54.27349
2022-12-01 02:54:00+00:00,178.0,6.28,171.0,7.88,12.33,47.59359,-54.27349
2022-12-01 03:04:00+00:00,182.0,6.57,184.0,7.78,12.33,47.59359,-54.27349
2022-12-01 03:14:01+00:00,177.0,6.07,173.0,7.59,12.33,47.59359,-54.27349
2022-12-01 03:24:01+00:00,175.0,6.72,177.0,7.69,12.33,47.59359,-54.27349
2022-12-01 03:34:01+00:00,181.0,7.05,185.0,7.89,12.33,47.59359,-54.27349
2022-12-01 03:44:01+00:00,179.0,6.04,164.0,7.23,12.33,47.59359,-54.27349
2022-12-01 03:54:01+00:00,179.0,6.55,177.0,8.04,12.33,47.59359,-54.27349
2022-12-01 04:04:01+00:00,178.0,5.97,166.0,7.01,12.33,47.59359,-54.27349
2022-12-01 04:14:00+00:00,173.0,6.78,185.0,8.18,12.33,47.59359,-54.27349
2022-12-01 04:24:00+00:00,198.0,5.69,208.0,6.81,12.33,47.59359,-54.27349
2022-12-01 04:34:00+00:00,178.0,7.0,163.0,8.15,12.33,47.59359,-54.27349
2022-12-01 04:44:00+00:00,169.0,6.52,184.0,7.98,12.33,47.59359,-54.27349
2022-12-01 04:54:00+00:00,172.0,7.25,185.0,8.32,12.33,47.59359,-54.27349
2022-12-01 05:04:00+00:00,176.0,7.97,165.0,9.14,12.33,47.59359,-54.27349
2022-12-01 05:14:00+00:00,177.0,7.49,167.0,9.66,12.25,47.59359,-54.27349
2022-12-01 05:24:00+00:00,180.0,8.29,179.0,9.56,12.25,47.59359,-54.27349
2022-12-01 05:34:00+00:00,179.0,8.01,195.0,9.23,12.25,47.59359,-54.27349
2022-12-01 05:44:00+00:00,179.0,7.2,178.0,8.27,12.25,47.59359,-54.27349
2022-12-01 05:54:00+00:00,174.0,7.54,164.0,8.63,12.25,47.59359,-54.27349
2022-12-01 06:04:00+00:00,175.0,8.64,169.0,10.55,12.25,47.59359,-54.27349
2022-12-01 06:14:01+00:00,175.0,8.5,171.0,9.57,12.25,47.59359,-54.27349
2022-12-01 06:24:01+00:00,188.0,9.29,199.0,10.51,12.25,47.59359,-54.27349
2022-12-01 06:34:01+00:00,179.0,8.75,200.0,10.27,12.25,47.59359,-54.27349
2022-12-01 06:44:01+00:00,186.0,10.19,196.0,11.87,12.25,47.59359,-54.27349
2022-12-01 06:54:01+00:00,177.0,10.58,192.0,12.09,12.25,47.59359,-54.27349
2022-12-01 07:04:01+00:00,184.0,11.16,171.0,12.31,12.25,47.59359,-54.27349
2022-12-01 07:14:00+00:00,199.0,11.42,217.0,14.02,12.25,47.59359,-54.27349
2022-12-01 07:24:00+00:00,175.0,10.26,170.0,12.02,12.25,47.59359,-54.27349
2022-12-01 07:34:00+00:00,203.0,10.94,209.0,13.16,12.25,47.59359,-54.27349
2022-12-01 07:44:00+00:00,185.0,8.84,196.0,10.51,12.25,47.59359,-54.27349
2022-12-01 07:54:00+00:00,207.0,10.16,222.0,14.03,12.25,47.59359,-54.27349
2022-12-01 08:04:00+00:00,204.0,11.61,219.0,14.44,12.25,47.59359,-54.27349
2022-12-01 08:14:00+00:00,204.0,11.47,220.0,15.13,12.25,47.59359,-54.27349
2022-12-01 08:24:00+00:00,198.0,10.84,211.0,13.2,12.25,47.59359,-54.27349
2022-12-01 08:34:00+00:00,202.0,10.92,226.0,13.34,12.25,47.59359,-54.27349
2022-12-01 08:44:00+00:00,200.0,11.4,217.0,14.05,12.25,47.59359,-54.27349
2022-12-01 08:54:00+00:00,197.0,11.79,195.0,14.01,12.25,47.59359,-54.27349
2022-12-01 09:04:00+00:00,203.0,13.66,204.0,16.22,12.25,47.59359,-54.27349
2022-12-01 09:14:00+00:00,200.0,12.63,215.0,14.93,12.25,47.59359,-54.27349
2022-12-01 09:24:00+00:00,200.0,13.47,212.0,16.39,12.25,47.59359,-54.27349
2022-12-01 09:34:00+00:00,204.0,14.09,210.0,16.78,12.25,47.59359,-54.27349
2022-12-01 09:44:00+00:00,204.0,14.39,213.0,16.86,12.25,47.59359,-54.27349
2022-12-01 09:54:00+00:00,200.0,11.18,218.0,14.3,12.25,47.59359,-54.27349
2022-12-01 10:04:00+00:00,202.0,13.4,208.0,16.61,12.25,47.59359,-54.27349
2022-12-01 10:14:00+00:00,203.0,13.1,212.0,15.41,12.25,47.59359,-54.27349
2022-12-01 10:24:00+00:00,191.0,11.18,189.0,13.07,12.25,47.59359,-54.27349
2022-12-01 10:34:00+00:00,197.0,11.45,201.0,13.46,12.25,47.59359,-54.27349
2022-12-01 10:44:00+00:00,205.0,12.22,210.0,14.56,12.25,47.59359,-54.27349
2022-12-01 10:54:00+00:00,192.0,10.8,196.0,11.89,12.25,47.59359,-54.27349
2022-12-01 11:04:00+00:00,191.0,11.37,184.0,13.55,12.25,47.59359,-54.27349
2022-12-01 11:14:00+00:00,180.0,10.36,182.0,11.37,12.25,47.59359,-54.27349
2022-12-01 11:24:00+00:00,177.0,10.58,180.0,12.75,12.25,47.59359,-54.27349
2022-12-01 11:34:00+00:00,180.0,10.75,185.0,12.5,12.25,47.59359,-54.27349
2022-12-01 11:44:00+00:00,178.0,10.93,178.0,13.63,12.25,47.59359,-54.27349
2022-12-01 11:54:00+00:00,180.0,11.74,183.0,13.3,12.25,47.59359,-54.27349
2022-12-01 12:04:00+00:00,173.0,11.56,170.0,13.46,12.25,47.59359,-54.27349
2022-12-01 12:14:00+00:00,174.0,10.37,180.0,11.21,12.33,47.59359,-54.27349
2022-12-01 12:24:00+00:00,175.0,10.8,180.0,13.35,12.33,47.59359,-54.27349
2022-12-01 12:34:00+00:00,177.0,11.66,179.0,13.35,12.33,47.59359,-54.27349
2022-12-01 12:44:00+00:00,177.0,12.33,181.0,14.75,12.33,47.59359,-54.27349
2022-12-01 12:54:00+00:00,181.0,13.24,182.0,15.65,12.33,47.59359,-54.27349
2022-12-01 13:04:00+00:00,181.0,12.43,186.0,14.49,12.33,47.59359,-54.27349
2022-12-01 13:14:01+00:00,185.0,14.91,187.0,17.44,12.49,47.59359,-54.27349
2022-12-01 13:24:01+00:00,182.0,11.81,180.0,13.17,12.49,47.59359,-54.27349
2022-12-01 13:34:01+00:00,186.0,11.84,196.0,14.07,12.49,47.59359,-54.27349
2022-12-01 13:44:01+00:00,181.0,10.53,185.0,12.16,12.49,47.59359,-54.27349
2022-12-01 13:54:01+00:00,184.0,10.89,177.0,12.93,12.49,47.59359,-54.27349
2022-12-01 14:04:01+00:00,190.0,12.26,201.0,14.33,12.49,47.59359,-54.27349
2022-12-01 14:14:00+00:00,188.0,10.12,199.0,11.98,12.81,47.59359,-54.27349
2022-12-01 14:24:00+00:00,185.0,14.3,192.0,16.23,12.81,47.59359,-54.27349
2022-12-01 14:34:00+00:00,183.0,15.67,184.0,18.97,12.81,47.59359,-54.27349
2022-12-01 14:44:00+00:00,187.0,14.76,189.0,17.24,12.81,47.59359,-54.27349
2022-12-01 14:54:00+00:00,189.0,13.27,197.0,14.95,12.81,47.59359,-54.27349
2022-12-01 15:04:00+00:00,183.0,14.18,186.0,16.56,12.81,47.59359,-54.27349
2022-12-01 17:14:00+00:00,166.0,17.99,165.0,21.45,14.4,47.59359,-54.27349
2022-12-01 17:24:00+00:00,163.0,16.54,158.0,19.18,14.4,47.59359,-54.27349
2022-12-01 17:34:00+00:00,163.0,17.03,158.0,19.36,14.4,47.59359,-54.27349
2022-12-01 17:44:00+00:00,163.0,14.53,166.0,16.83,14.4,47.59359,-54.27349
2022-12-01 17:54:00+00:00,172.0,16.25,170.0,19.35,14.4,47.59359,-54.27349
2022-12-01 18:04:00+00:00,174.0,17.2,180.0,22.52,14.4,47.59359,-54.27349
2022-12-01 18:14:00+00:00,174.0,15.58,173.0,17.46,12.97,47.59359,-54.27349
2022-12-01 18:24:00+00:00,172.0,18.88,167.0,22.08,12.97,47.59359,-54.27349
2022-12-01 18:34:00+00:00,170.0,16.54,169.0,20.47,12.97,47.59359,-54.27349
2022-12-01 18:44:00+00:00,170.0,17.05,170.0,19.81,12.97,47.59359,-54.27349
2022-12-01 18:54:00+00:00,167.0,16.17,168.0,18.49,12.97,47.59359,-54.27349
2022-12-01 19:04:00+00:00,169.0,15.41,168.0,17.93,12.97,47.59359,-54.27349
2022-12-01 19:14:00+00:00,169.0,18.68,177.0,21.04,12.65,47.59359,-54.27349
2022-12-01 19:24:00+00:00,167.0,17.92,163.0,20.0,12.65,47.59359,-54.27349
2022-12-01 19:34:00+00:00,166.0,18.15,169.0,22.37,12.65,47.59359,-54.27349
2022-12-01 19:44:00+00:00,168.0,16.59,167.0,20.81,12.65,47.59359,-54.27349
2022-12-01 19:54:00+00:00,167.0,17.07,167.0,20.4,12.65,47.59359,-54.27349
2022-12-01 20:04:00+00:00,167.0,18.28,168.0,22.16,12.65,47.59359,-54.27349
2022-12-01 20:14:01+00:00,166.0,19.29,166.0,21.87,12.49,47.59359,-54.27349
2022-12-01 20:24:01+00:00,165.0,17.65,166.0,21.43,12.49,47.59359,-54.27349
2022-12-01 20:34:01+00:00,166.0,18.5,164.0,21.55,12.49,47.59359,-54.27349
2022-12-01 20:44:01+00:00,166.0,18.38,171.0,22.14,12.49,47.59359,-54.27349
2022-12-01 20:54:01+00:00,167.0,18.92,164.0,22.6,12.49,47.59359,-54.27349
2022-12-01 21:04:01+00:00,165.0,18.03,165.0,22.87,12.49,47.59359,-54.27349
2022-12-01 21:14:01+00:00,165.0,19.93,169.0,23.74,12.41,47.59359,-54.27349
2022-12-01 21:24:01+00:00,164.0,17.95,164.0,21.57,12.41,47.59359,-54.27349
2022-12-01 21:34:01+00:00,165.0,16.94,168.0,21.06,12.41,47.59359,-54.27349
2022-12-01 21:44:01+00:00,167.0,18.73,169.0,21.33,12.41,47.59359,-54.27349
2022-12-01 21:54:01+00:00,165.0,17.97,162.0,20.76,12.41,47.59359,-54.27349
2022-12-01 22:04:01+00:00,166.0,20.01,159.0,23.31,12.41,47.59359,-54.27349
2022-12-01 22:14:01+00:00,166.0,16.66,168.0,19.67,12.41,47.59359,-54.27349
2022-12-01 22:24:01+00:00,165.0,17.09,169.0,21.3,12.41,47.59359,-54.27349
2022-12-01 22:34:01+00:00,166.0,16.77,169.0,19.16,12.41,47.59359,-54.27349
2022-12-01 22:44:01+00:00,171.0,21.81,193.0,25.58,12.41,47.59359,-54.27349
2022-12-01 22:54:01+00:00,170.0,19.5,167.0,25.22,12.41,47.59359,-54.27349
2022-12-01 23:04:01+00:00,172.0,20.57,168.0,24.16,12.41,47.59359,-54.27349
2022-12-01 23:14:01+00:00,171.0,19.69,172.0,23.23,12.41,47.59359,-54.27349
2022-12-01 23:24:01+00:00,170.0,24.32,168.0,27.92,12.41,47.59359,-54.27349
2022-12-01 23:34:01+00:00,174.0,23.6,181.0,28.34,12.41,47.59359,-54.27349
2022-12-01 23:44:01+00:00,174.0,20.63,170.0,23.9,12.41,47.59359,-54.27349
2022-12-01 23:54:01+00:00,173.0,19.48,168.0,22.88,12.41,47.59359,-54.27349
